Flag for U.S.A. Weather past 2 weeks in Orange, California, U.S.A.

Now
69 °F

Haze.


Feels Like: 69 °F
Forecast: 60 / 82 °F
Wind: 8 mph from Southwest

Location: John Wayne Airport-Orange County Airport

Current Time: May 30, 2015 at 12:11:55 PM

Latest Report: May 30, 2015 at 11:53 AM


Visibility: 6 mi

Pressure: 29.96 "Hg

Humidity: 66%

Dew point: 57 °F

Location of OrangeLocation

Historic Weather in Orange — Graph

°F

Orange temperature yesterday

Maximum temperature yesterday: 72 °F (at 11:53 AM)
Minimum temperature yesterday: 61 °F (at 12:53 AM)
Average temperature yesterday: 65 °F

Past Weeks' High & Low Weather Summary

 TemperatureHumidityPressure
High72 °F (May 29, 11:53 AM)87% (May 29, 11:53 PM)30.09 "Hg (May 29, 11:53 PM)
Low56 °F (May 16, 5:53 AM)44% (May 21, 12:53 PM)29.83 "Hg (May 15, 3:53 PM)
Average63 °F69%29.98 "Hg
* Reported May 15 10:59 AM — May 30 10:53 AM, Orange, Weather by CustomWeather, © 2015

Note: Actual official high and low records may vary slightly from our data, if they occured in-between our weather recording intervals... More about our weather records

Advertising

Orange weather history for previous 24 hours

 ConditionsComfort  
Time TempWeatherWind HumidityBarometerVisibility
10:53 AM
Sat, May 30
65 °FOvercast.3 mph76%29.97 "Hg6 mi
9:53 AM63 °FOvercast.3 mph81%29.97 "Hg5 mi
8:53 AM63 °FOvercast.No wind81%29.96 "Hg5 mi
7:53 AM63 °FOvercast.No wind81%29.94 "Hg5 mi
6:53 AM63 °FFog.No wind81%29.93 "Hg7 mi
5:53 AM62 °FFog.No wind83%29.92 "Hg5 mi
4:53 AM62 °FLow clouds.No wind83%29.91 "Hg9 mi
3:53 AM62 °FLow clouds.No wind83%29.90 "Hg8 mi
2:53 AM62 °FLow clouds.No wind83%29.91 "Hg8 mi
1:53 AM62 °FLow clouds.5 mph83%29.91 "Hg9 mi
12:53 AM62 °FLow clouds.3 mph83%29.93 "Hg10 mi
11:53 PM
Fri, May 29
61 °FPassing clouds.5 mph87%29.93 "Hg9 mi
10:53 PM62 °FPassing clouds.6 mph83%29.93 "Hg9 mi
9:53 PM62 °FPassing clouds.5 mph83%29.92 "Hg10 mi
8:53 PM63 °FPartly sunny.3 mph81%29.91 "Hg10 mi
7:53 PM64 °FBroken clouds.7 mph78%29.91 "Hg10 mi
6:53 PM66 °FPartly sunny.7 mph73%29.89 "Hg10 mi
5:53 PM69 °FPartly sunny.12 mph63%29.88 "Hg10 mi
4:53 PM70 °FPartly sunny.10 mph61%29.89 "Hg10 mi
3:53 PM72 °FPartly sunny.9 mph57%29.90 "Hg10 mi
2:53 PM71 °FPartly sunny.9 mph59%29.92 "Hg10 mi
1:53 PM71 °FPartly sunny.7 mph59%29.93 "Hg10 mi
12:53 PM72 °FPartly sunny.8 mph57%29.93 "Hg10 mi
Weather by CustomWeather, © 2015

See weather overviewHow to use our weather pages